Weather in Bolshaya Sosnova

Russia / Perm Krai     57°40′04″N   54°36′13″E
temp.,
°C
wind,
m/s
gust,
m/s
humid.,
%
clouds,
%
prec.,
mm/h
press.,
hPa
HPBL,
m
3 march, wed
wed323:00−4ssw5997100 0.4 994209
02:00−4wsw3597100 0.5 99498
05:00−7w4597100 0.6 99588
08:00−10w479628 0.0 995102
11:00−6w479436 0.0 997220
14:00−3w359274 0.0 997405
17:00−2w349186 0.1 997470
20:00−5wnw2396100 0.2 99746
4 march, thu
thu423:00−6nw4993100 0.6 998425
02:00−12w479794 0.0 997116
05:00−13w479786 0.1 998124
08:00−14wsw359787 0.0 99789
11:00−8sw589393 0.1 996381
14:00−7ssw6993100 0.2 995468
17:00−4ssw61093100 0.4 993642
20:00−5s51096100 0.6 991389
5 march, fri
fri523:00−6ssw3597100 1.1 991129
02:00−9w4696100 0.0 99296
05:00−9wnw339596 0.2 99557
08:00−11nw349498 0.0 99770
11:00−9wnw249294 0.0 999250
14:00−6wnw2386100 0.1 1000558
17:00−6w3484100 0.1 1001760
20:00−13wnw459359 0.0 100267
6 march, sat
sat623:00−16nw349649 0.0 100568
02:00−18wnw349610 0.0 100753
05:00−20wnw349718 0.0 100957
08:00−20w349790 0.0 101084
11:00−16w359166 0.0 1010231
14:00−11sw358418 0.0 1009437
17:00−9ssw579158 0.1 1008615
20:00−11ssw479699 0.4 1008190
7 march, sun
sun723:00−13wsw369699 0.6 1008147
02:00−17wnw359599 0.1 100884
05:00−22wnw339770 0.1 100925
08:00−24w23980 0.0 100920
11:00−18sw359426 0.0 1010230
14:00−13sw578997 0.1 1010673
17:00−12sw588899 0.2 1008780
20:00−14s51196100 0.1 1008279